GW6339 Weather Reports


time (UTC)temp
C
wind
direction
speed
KPH
gust
KPH
rain 1hr
cm
rain 24hr
cm
rain mn
cm
humidity
%
barometer
mb
20260906235227 35 297 0.0 4.8 0.00 0.00 0.00 41 1009.5
20260906235127 35 60 3.2 6.4 0.00 0.00 0.00 41 1009.5
20260906235026 35 245 4.8 6.4 0.00 0.00 0.00 41 1009.3
20260906234926 35 289 1.6 6.4 0.00 0.00 0.00 41 1009.6
20260906234836 35 77 3.2 3.2 0.00 0.00 0.00 41 1009.4
20260906234727 35 98 1.6 3.2 0.00 0.00 0.00 41 1009.6
20260906234626 35 356 3.2 3.2 0.00 0.00 0.00 40 1009.3
20260906234426 35 144 0.0 8.0 0.00 0.00 0.00 40 1009.3
20260906234328 35 83 6.4 9.7 0.00 0.00 0.00 40 1009.7
20260906234226 35 151 3.2 9.7 0.00 0.00 0.00 40 1009.6
20260906234126 35 48 8.0 6.4 0.00 0.00 0.00 40 1009.2
20260906234026 35 45 0.0 6.4 0.00 0.00 0.00 40 1009.7
20260906233927 35 277 3.2 4.8 0.00 0.00 0.00 40 1009.3
20260906233727 36 186 0.0 3.2 0.00 0.00 0.00 40 1009.2
20260906233636 36 302 1.6 4.8 0.00 0.00 0.00 39 1009.5
20260906233527 36 86 1.6 6.4 0.00 0.00 0.00 39 1009.6
20260906233426 36 357 3.2 6.4 0.00 0.00 0.00 40 1009.7
20260906233327 36 83 1.6 4.8 0.00 0.00 0.00 40 1009.4
20260906233226 36 45 3.2 4.8 0.00 0.00 0.00 40 1009.3
20260906233126 36 229 3.2 4.8 0.00 0.00 0.00 40 1009.6
20260906232726 36 255 0.0 6.4 0.00 0.00 0.00 40 1009.5
20260906232627 36 37 3.2 6.4 0.00 0.00 0.00 40 1009.5
20260906232526 36 350 3.2 6.4 0.00 0.00 0.00 40 1009.5
20260906232427 36 87 6.4 4.8 0.00 0.00 0.00 40 1009.6
20260906232337 36 255 0.0 4.8 0.00 0.00 0.00 40 1009.6
20260906232227 36 237 4.8 6.4 0.00 0.00 0.00 40 1009.6
20260906232126 36 269 0.0 6.4 0.00 0.00 0.00 39 1009.7
20260906232026 36 0 1.6 6.4 0.00 0.00 0.00 39 1009.4
20260906231926 36 131 0.0 6.4 0.00 0.00 0.00 39 1009.5
20260906231826 36 221 3.2 4.8 0.00 0.00 0.00 39 1009.5
20260906231726 36 226 4.8 4.8 0.00 0.00 0.00 39 1009.6
20260906231626 36 165 3.2 4.8 0.00 0.00 0.00 38 1009.8
20260906231526 36 244 3.2 6.4 0.00 0.00 0.00 38 1009.6
20260906231436 36 209 1.6 6.4 0.00 0.00 0.00 38 1009.4
20260906231326 36 213 4.8 3.2 0.00 0.00 0.00 39 1009.6
20260906231126 36 141 1.6 6.4 0.00 0.00 0.00 38 1009.7
20260906231026 36 118 0.0 6.4 0.00 0.00 0.00 38 1009.7
20260906230926 36 253 3.2 3.2 0.00 0.00 0.00 38 1009.7
20260906230827 36 288 1.6 3.2 0.00 0.00 0.00 39 1009.4
20260906230526 37 294 0.0 3.2 0.00 0.00 0.00 39 1009.4
20260906230426 37 177 3.2 4.8 0.00 0.00 0.00 39 1009.4
20260906230326 37 246 1.6 6.4 0.00 0.00 0.00 38 1009.5
20260906230225 37 86 3.2 6.4 0.00 0.00 0.00 38 1009.5
20260906230126 37 138 3.2 6.4 0.00 0.00 0.00 38 1009.4
20260906230035 37 111 6.4 4.8 0.00 0.00 0.00 38 1009.5
20260906225926 37 164 3.2 3.2 0.00 0.00 0.00 38 1009.5
20260906225636 37 260 0.0 4.8 0.00 0.00 0.00 37 1009.5
20260906225527 37 277 3.2 4.8 0.00 0.00 0.00 38 1009.6
20260906225426 37 222 4.8 4.8 0.00 0.00 0.00 38 1009.6
20260906225326 37 242 3.2 4.8 0.00 0.00 0.00 37 1009.3
20260906225226 37 232 1.6 3.2 0.00 0.00 0.00 38 1009.3
20260906225136 37 219 0.0 4.8 0.00 0.00 0.00 38 1009.4
20260906225025 37 278 1.6 4.8 0.00 0.00 0.00 38 1009.3
20260906224925 37 240 1.6 4.8 0.00 0.00 0.00 38 1009.4
20260906224826 37 263 3.2 3.2 0.00 0.00 0.00 38 1009.6
20260906224526 37 358 0.0 3.2 0.00 0.00 0.00 39 1009.5
20260906224425 37 228 3.2 4.8 0.00 0.00 0.00 39 1009.4
20260906224325 37 288 1.6 4.8 0.00 0.00 0.00 39 1009.5
20260906224225 37 297 0.0 6.4 0.00 0.00 0.00 39 1009.5
20260906224126 37 143 1.6 6.4 0.00 0.00 0.00 39 1009.7
20260906224026 37 166 4.8 8.0 0.00 0.00 0.00 39 1009.5
20260906223936 37 98 6.4 8.0 0.00 0.00 0.00 39 1010.0
20260906223836 37 74 1.6 9.7 0.00 0.00 0.00 38 1009.9
20260906223726 37 162 0.0 9.7 0.00 0.00 0.00 38 1009.5
20260906223636 37 217 3.2 9.7 0.00 0.00 0.00 38 1009.5
20260906223525 37 251 1.6 9.7 0.00 0.00 0.00 38 1009.3
20260906223426 37 173 3.2 4.8 0.00 0.00 0.00 38 1009.7
20260906223326 37 273 4.8 4.8 0.00 0.00 0.00 38 1009.4
20260906223226 37 263 3.2 4.8 0.00 0.00 0.00 38 1009.4
20260906223127 37 172 0.0 6.4 0.00 0.00 0.00 38 1009.5
20260906222925 37 96 4.8 6.4 0.00 0.00 0.00 38 1009.4
20260906222825 37 58 3.2 4.8 0.00 0.00 0.00 38 1009.5
20260906222726 37 106 3.2 4.8 0.00 0.00 0.00 38 1009.4
20260906222626 37 120 3.2 4.8 0.00 0.00 0.00 38 1009.4
20260906222526 37 258 0.0 4.8 0.00 0.00 0.00 38 1009.5
20260906222426 37 213 4.8 6.4 0.00 0.00 0.00 38 1009.4
20260906222326 37 302 1.6 6.4 0.00 0.00 0.00 38 1009.8
20260906222227 37 41 4.8 4.8 0.00 0.00 0.00 38 1009.7
20260906222026 37 198 0.0 4.8 0.00 0.00 0.00 37 1009.6
20260906221926 37 285 1.6 4.8 0.00 0.00 0.00 37 1009.7
20260906221827 37 62 3.2 8.0 0.00 0.00 0.00 38 1009.5
20260906221736 37 147 3.2 8.0 0.00 0.00 0.00 38 1009.6
20260906221626 37 112 6.4 6.4 0.00 0.00 0.00 37 1009.6
20260906221526 37 181 3.2 9.7 0.00 0.00 0.00 37 1009.6
20260906221436 37 134 3.2 9.7 0.00 0.00 0.00 37 1009.5
20260906221336 37 124 0.0 6.4 0.00 0.00 0.00 37 1009.7
20260906221226 37 56 3.2 6.4 0.00 0.00 0.00 37 1009.4
20260906221126 37 149 4.8 8.0 0.00 0.00 0.00 38 1009.3
20260906221026 37 228 3.2 8.0 0.00 0.00 0.00 37 1009.6
20260906220926 37 230 4.8 8.0 0.00 0.00 0.00 38 1009.3
20260906220826 37 247 3.2 6.4 0.00 0.00 0.00 38 1009.7
20260906220726 37 159 1.6 6.4 0.00 0.00 0.00 38 1009.6
20260906220626 37 222 4.8 6.4 0.00 0.00 0.00 38 1009.5
20260906220527 37 237 3.2 4.8 0.00 0.00 0.00 38 1009.5
20260906220426 37 271 0.0 4.8 0.00 0.00 0.00 39 1009.6
20260906220326 37 221 1.6 4.8 0.00 0.00 0.00 39 1009.5
20260906220236 37 187 3.2 4.8 0.00 0.00 0.00 39 1009.7
20260906220136 37 351 0.0 4.8 0.00 0.00 0.00 39 1009.5
20260906220026 37 128 3.2 6.4 0.00 0.00 0.00 38 1009.5
20260906215926 37 318 1.6 8.0 0.00 0.00 0.00 38 1009.6
20260906215826 37 318 0.0 6.4 0.00 0.00 0.00 38 1009.6
20260906215736 37 99 6.4 4.8 0.00 0.00 0.00 38 1009.7
20260906215625 37 225 4.8 6.4 0.00 0.00 0.00 38 1009.6
20260906215526 37 175 3.2 6.4 0.00 0.00 0.00 38 1009.5
20260906215426 37 7 1.6 6.4 0.00 0.00 0.00 38 1009.5
20260906215325 37 212 4.8 8.0 0.00 0.00 0.00 38 1009.5
20260906215226 37 85 4.8 8.0 0.00 0.00 0.00 38 1009.7
20260906215135 37 56 0.0 6.4 0.00 0.00 0.00 37 1009.4
20260906215026 37 194 3.2 4.8 0.00 0.00 0.00 38 1009.8
20260906214925 37 140 3.2 8.0 0.00 0.00 0.00 38 1009.6
20260906214825 37 133 3.2 8.0 0.00 0.00 0.00 38 1009.6
20260906214725 37 268 1.6 6.4 0.00 0.00 0.00 38 1009.6
20260906214626 37 72 6.4 4.8 0.00 0.00 0.00 38 1009.5
20260906214525 37 110 3.2 4.8 0.00 0.00 0.00 37 1009.6
20260906214426 37 286 0.0 4.8 0.00 0.00 0.00 37 1009.5
20260906214326 37 260 1.6 4.8 0.00 0.00 0.00 38 1009.5
20260906214226 37 234 3.2 3.2 0.00 0.00 0.00 38 1009.6
20260906214126 37 334 1.6 6.4 0.00 0.00 0.00 37 1009.7
20260906214035 37 43 3.2 6.4 0.00 0.00 0.00 37 1009.8
20260906213935 37 314 3.2 6.4 0.00 0.00 0.00 37 1009.9
20260906213836 37 207 3.2 6.4 0.00 0.00 0.00 37 1009.9
20260906213725 37 136 1.6 9.7 0.00 0.00 0.00 37 1009.8
20260906213627 37 108 3.2 9.7 0.00 0.00 0.00 36 1009.6
20260906213526 37 66 6.4 8.0 0.00 0.00 0.00 36 1009.6
20260906213426 37 333 1.6 8.0 0.00 0.00 0.00 37 1009.8
20260906213326 37 111 8.0 11.3 0.00 0.00 0.00 37 1009.8
20260906213126 37 310 3.2 4.8 0.00 0.00 0.00 37 1009.8
20260906213025 37 251 1.6 6.4 0.00 0.00 0.00 38 1009.7
20260906212627 37 229 0.0 3.2 0.00 0.00 0.00 38 1009.7
20260906212527 37 206 3.2 4.8 0.00 0.00 0.00 39 1009.7
20260906212426 37 123 0.0 4.8 0.00 0.00 0.00 39 1009.8
20260906212336 37 284 3.2 9.7 0.00 0.00 0.00 38 1009.9
20260906212227 37 273 1.6 9.7 0.00 0.00 0.00 38 1009.8
20260906212136 37 127 4.8 8.0 0.00 0.00 0.00 38 1009.9
20260906212026 37 43 3.2 8.0 0.00 0.00 0.00 37 1009.7
20260906211936 37 35 4.8 8.0 0.00 0.00 0.00 37 1009.8
20260906211826 37 100 3.2 8.0 0.00 0.00 0.00 37 1009.9
20260906211627 37 160 3.2 17.7 0.00 0.00 0.00 37 1009.8
20260906211536 37 96 8.0 8.0 0.00 0.00 0.00 38 1009.9
20260906211427 37 69 4.8 4.8 0.00 0.00 0.00 38 1009.8
20260906211226 37 42 1.6 8.0 0.00 0.00 0.00 37 1010.1
20260906211037 37 16 1.6 11.3 0.00 0.00 0.00 37 1010.3
20260906210926 37 355 4.8 9.7 0.00 0.00 0.00 37 1010.0
20260906210826 37 214 3.2 9.7 0.00 0.00 0.00 37 1010.1
20260906210726 37 46 3.2 6.4 0.00 0.00 0.00 38 1010.2
20260906210626 37 94 6.4 8.0 0.00 0.00 0.00 38 1010.2
20260906210526 37 146 0.0 8.0 0.00 0.00 0.00 38 1010.1
20260906210426 37 135 3.2 6.4 0.00 0.00 0.00 38 1010.1
20260906210325 37 180 3.2 6.4 0.00 0.00 0.00 38 1010.1
20260906210225 37 111 3.2 6.4 0.00 0.00 0.00 38 1010.2
20260906210126 37 122 0.0 9.7 0.00 0.00 0.00 38 1010.2
20260906205925 37 8 3.2 4.8 0.00 0.00 0.00 38 1010.2
20260906205826 37 229 3.2 4.8 0.00 0.00 0.00 37 1010.3
20260906205525 37 208 0.0 8.0 0.00 0.00 0.00 37 1010.4
20260906205426 37 226 3.2 9.7 0.00 0.00 0.00 37 1010.3
20260906205326 37 319 0.0 9.7 0.00 0.00 0.00 37 1010.3
20260906205225 37 157 3.2 12.9 0.00 0.00 0.00 38 1010.4
20260906205125 37 197 3.2 6.4 0.00 0.00 0.00 38 1010.4
20260906205025 37 94 4.8 4.8 0.00 0.00 0.00 38 1010.5
20260906204926 37 33 1.6 4.8 0.00 0.00 0.00 39 1010.3
20260906204725 37 323 3.2 6.4 0.00 0.00 0.00 39 1010.3
20260906204636 37 241 0.0 8.0 0.00 0.00 0.00 39 1010.4
20260906204525 37 239 1.6 8.0 0.00 0.00 0.00 39 1010.5
20260906204425 37 96 4.8 6.4 0.00 0.00 0.00 39 1010.6
20260906204336 37 299 1.6 8.0 0.00 0.00 0.00 39 1010.7
20260906204226 37 162 1.6 8.0 0.00 0.00 0.00 39 1010.7
20260906204128 37 171 4.8 9.7 0.00 0.00 0.00 39 1010.4
20260906204025 37 155 1.6 9.7 0.00 0.00 0.00 39 1010.6
20260906203926 37 201 3.2 8.0 0.00 0.00 0.00 39 1010.5
20260906203825 37 115 0.0 8.0 0.00 0.00 0.00 38 1010.6
20260906203726 37 169 3.2 6.4 0.00 0.00 0.00 38 1010.6
20260906203625 37 211 3.2 4.8 0.00 0.00 0.00 38 1010.5
20260906203325 37 229 1.6 4.8 0.00 0.00 0.00 38 1010.4
20260906203226 37 349 3.2 4.8 0.00 0.00 0.00 39 1010.5
20260906203135 37 288 1.6 3.2 0.00 0.00 0.00 39 1010.5
20260906203025 37 321 3.2 6.4 0.00 0.00 0.00 38 1010.3
20260906202926 37 317 1.6 8.0 0.00 0.00 0.00 38 1010.6
20260906202825 37 225 3.2 8.0 0.00 0.00 0.00 38 1010.6
20260906202736 37 153 8.0 6.4 0.00 0.00 0.00 39 1010.7
20260906202625 37 210 3.2 4.8 0.00 0.00 0.00 39 1010.8
20260906202526 37 248 0.0 6.4 0.00 0.00 0.00 39 1011.0
20260906202426 37 261 1.6 6.4 0.00 0.00 0.00 39 1010.9
20260906202326 37 330 3.2 6.4 0.00 0.00 0.00 39 1010.8
20260906202226 37 195 3.2 11.3 0.00 0.00 0.00 39 1010.8
20260906202125 37 241 0.0 11.3 0.00 0.00 0.00 39 1011.0
20260906202025 37 125 6.4 11.3 0.00 0.00 0.00 39 1010.8
20260906201926 37 107 4.8 8.0 0.00 0.00 0.00 39 1010.9
20260906201826 37 117 3.2 4.8 0.00 0.00 0.00 39 1010.9
20260906201726 37 188 1.6 6.4 0.00 0.00 0.00 40 1010.9
20260906201626 36 272 0.0 6.4 0.00 0.00 0.00 40 1011.0
20260906201526 36 237 3.2 6.4 0.00 0.00 0.00 41 1010.6
20260906201336 36 163 1.6 6.4 0.00 0.00 0.00 40 1010.9
20260906201226 36 351 6.4 4.8 0.00 0.00 0.00 41 1010.8
20260906201026 36 117 0.0 11.3 0.00 0.00 0.00 40 1011.2
20260906200926 36 33 8.0 6.4 0.00 0.00 0.00 40 1010.8
20260906200827 36 164 6.4 8.0 0.00 0.00 0.00 40 1010.7
20260906200726 36 127 3.2 8.0 0.00 0.00 0.00 40 1011.0
20260906200626 36 50 3.2 12.9 0.00 0.00 0.00 40 1011.0
20260906200526 36 117 1.6 12.9 0.00 0.00 0.00 40 1011.0
20260906200426 36 115 9.7 6.4 0.00 0.00 0.00 40 1011.1
20260906200326 36 203 0.0 6.4 0.00 0.00 0.00 40 1011.0
20260906200226 36 143 3.2 9.7 0.00 0.00 0.00 40 1011.1
20260906200125 36 17 4.8 9.7 0.00 0.00 0.00 41 1011.0
20260906200025 36 106 3.2 4.8 0.00 0.00 0.00 41 1011.0
20260906195925 36 195 0.0 6.4 0.00 0.00 0.00 41 1011.2
20260906195835 36 243 3.2 6.4 0.00 0.00 0.00 40 1011.3
20260906195725 36 343 3.2 4.8 0.00 0.00 0.00 41 1011.1
20260906195626 36 203 3.2 4.8 0.00 0.00 0.00 41 1011.1
20260906195525 36 151 3.2 3.2 0.00 0.00 0.00 41 1010.9
20260906195425 36 88 3.2 8.0 0.00 0.00 0.00 41 1011.1
20260906195326 36 217 0.0 8.0 0.00 0.00 0.00 41 1011.2
20260906195225 36 114 3.2 4.8 0.00 0.00 0.00 41 1011.3
20260906195135 36 169 1.6 6.4 0.00 0.00 0.00 42 1011.2
20260906195026 36 247 3.2 6.4 0.00 0.00 0.00 41 1011.2
20260906194925 36 241 1.6 6.4 0.00 0.00 0.00 42 1011.4
20260906194826 36 79 4.8 6.4 0.00 0.00 0.00 42 1011.3
20260906194726 36 129 4.8 4.8 0.00 0.00 0.00 43 1011.3
20260906194626 36 98 1.6 4.8 0.00 0.00 0.00 43 1011.2
20260906194426 36 30 0.0 4.8 0.00 0.00 0.00 43 1011.2
20260906194235 36 136 3.2 8.0 0.00 0.00 0.00 43 1011.4
20260906194125 36 339 3.2 8.0 0.00 0.00 0.00 43 1011.3
20260906194025 36 326 0.0 9.7 0.00 0.00 0.00 43 1011.4
20260906193926 36 26 1.6 8.0 0.00 0.00 0.00 42 1011.3
20260906193725 36 35 4.8 9.7 0.00 0.00 0.00 42 1011.3
20260906193625 36 318 3.2 9.7 0.00 0.00 0.00 41 1011.6
20260906193525 36 77 8.0 6.4 0.00 0.00 0.00 41 1011.2
20260906193425 36 156 4.8 4.8 0.00 0.00 0.00 41 1011.1
20260906193336 36 143 3.2 3.2 0.00 0.00 0.00 41 1011.2
20260906193226 36 154 0.0 3.2 0.00 0.00 0.00 42 1011.2
20260906193135 37 279 3.2 6.4 0.00 0.00 0.00 42 1011.4
20260906193026 37 16 1.6 8.0 0.00 0.00 0.00 42 1011.4
20260906192825 36 111 0.0 6.4 0.00 0.00 0.00 43 1011.2
20260906192736 36 30 1.6 4.8 0.00 0.00 0.00 43 1011.3
20260906192636 36 284 4.8 6.4 0.00 0.00 0.00 43 1011.2
20260906192526 36 282 3.2 6.4 0.00 0.00 0.00 42 1011.3
20260906192326 36 242 3.2 8.0 0.00 0.00 0.00 43 1011.2
20260906192225 36 173 6.4 8.0 0.00 0.00 0.00 44 1011.3
20260906192136 36 134 0.0 6.4 0.00 0.00 0.00 44 1011.2
20260906192026 36 230 1.6 6.4 0.00 0.00 0.00 43 1011.4
20260906191926 36 293 3.2 6.4 0.00 0.00 0.00 43 1011.3
20260906191836 36 197 1.6 9.7 0.00 0.00 0.00 43 1011.5
20260906191726 36 251 3.2 11.3 0.00 0.00 0.00 43 1011.6
20260906191626 36 191 3.2 11.3 0.00 0.00 0.00 43 1011.6
20260906191526 36 93 9.7 4.8 0.00 0.00 0.00 43 1011.7
20260906191326 36 153 1.6 6.4 0.00 0.00 0.00 44 1011.5
20260906191227 36 189 3.2 6.4 0.00 0.00 0.00 45 1011.7
20260906191126 35 232 4.8 4.8 0.00 0.00 0.00 45 1011.7
20260906191026 35 302 3.2 6.4 0.00 0.00 0.00 44 1011.8
20260906190927 36 140 0.0 8.0 0.00 0.00 0.00 44 1011.6
20260906190826 36 207 3.2 8.0 0.00 0.00 0.00 44 1011.8
20260906190726 36 13 0.0 9.7 0.00 0.00 0.00 43 1011.4
20260906190636 36 40 3.2 9.7 0.00 0.00 0.00 43 1011.7
20260906190526 36 320 0.0 12.9 0.00 0.00 0.00 43 1011.8
20260906190436 36 356 1.6 12.9 0.00 0.00 0.00 42 1011.7
20260906190327 36 114 9.7 6.4 0.00 0.00 0.00 41 1011.6
20260906190226 37 125 4.8 6.4 0.00 0.00 0.00 41 1011.6
20260906190126 37 11 3.2 4.8 0.00 0.00 0.00 41 1011.9
20260906185827 36 239 0.0 9.7 0.00 0.00 0.00 43 1011.7
20260906185726 36 314 3.2 4.8 0.00 0.00 0.00 43 1011.6
20260906185626 36 279 3.2 4.8 0.00 0.00 0.00 43 1011.7
20260906185526 36 43 1.6 3.2 0.00 0.00 0.00 44 1011.9
20260906185427 36 333 3.2 3.2 0.00 0.00 0.00 45 1011.7
20260906185327 36 307 0.0 4.8 0.00 0.00 0.00 44 1011.7
20260906185226 36 309 3.2 14.5 0.00 0.00 0.00 44 1012.0
20260906185126 36 58 3.2 14.5 0.00 0.00 0.00 43 1011.9
20260906185036 36 122 3.2 8.0 0.00 0.00 0.00 43 1011.9
20260906184927 36 108 6.4 6.4 0.00 0.00 0.00 44 1011.8
20260906184826 36 50 0.0 11.3 0.00 0.00 0.00 45 1012.0
20260906184626 36 182 1.6 6.4 0.00 0.00 0.00 45 1012.1
20260906184526 36 339 3.2 6.4 0.00 0.00 0.00 45 1011.8
20260906184427 36 42 1.6 11.3 0.00 0.00 0.00 44 1012.0
20260906184326 36 218 4.8 11.3 0.00 0.00 0.00 44 1011.9
20260906184226 36 143 1.6 6.4 0.00 0.00 0.00 43 1011.7
20260906184127 36 50 6.4 6.4 0.00 0.00 0.00 43 1011.9
20260906184026 36 106 4.8 8.0 0.00 0.00 0.00 44 1011.8
20260906183927 36 278 1.6 8.0 0.00 0.00 0.00 43 1011.9
20260906183826 36 158 0.0 4.8 0.00 0.00 0.00 43 1012.0
20260906183736 36 115 3.2 3.2 0.00 0.00 0.00 44 1011.9
20260906183626 36 143 1.6 6.4 0.00 0.00 0.00 44 1011.9
20260906183526 36 287 0.0 6.4 0.00 0.00 0.00 44 1011.9
20260906183426 36 20 1.6 4.8 0.00 0.00 0.00 44 1012.2
20260906183327 36 204 3.2 8.0 0.00 0.00 0.00 44 1012.1
20260906183236 36 85 3.2 8.0 0.00 0.00 0.00 44 1012.0
20260906183127 36 175 6.4 4.8 0.00 0.00 0.00 45 1012.2
20260906183026 35 196 3.2 9.7 0.00 0.00 0.00 45 1012.0
20260906182927 35 215 3.2 12.9 0.00 0.00 0.00 44 1012.1
20260906182826 35 289 3.2 12.9 0.00 0.00 0.00 44 1012.2
20260906182726 35 43 8.0 4.8 0.00 0.00 0.00 45 1012.2
20260906182625 35 163 3.2 6.4 0.00 0.00 0.00 45 1012.3
20260906182525 35 38 4.8 6.4 0.00 0.00 0.00 44 1012.1
20260906182425 36 138 6.4 6.4 0.00 0.00 0.00 44 1012.1
20260906182325 35 81 4.8 6.4 0.00 0.00 0.00 45 1012.1
20260906182236 35 222 3.2 8.0 0.00 0.00 0.00 44 1012.3
20260906182126 35 258 3.2 8.0 0.00 0.00 0.00 45 1012.2
20260906182025 35 352 3.2 16.1 0.00 0.00 0.00 45 1012.4
20260906181925 35 138 4.8 16.1 0.00 0.00 0.00 44 1012.2
20260906181826 35 162 3.2 8.0 0.00 0.00 0.00 45 1012.2
20260906181725 35 329 4.8 8.0 0.00 0.00 0.00 45 1012.1
20260906181626 35 66 4.8 8.0 0.00 0.00 0.00 44 1012.2
20260906181525 35 96 3.2 8.0 0.00 0.00 0.00 45 1012.3
20260906181426 35 248 6.4 6.4 0.00 0.00 0.00 45 1012.3
20260906181336 35 42 4.8 9.7 0.00 0.00 0.00 45 1012.3
20260906181236 35 151 1.6 11.3 0.00 0.00 0.00 44 1012.3
20260906181126 36 84 3.2 9.7 0.00 0.00 0.00 43 1012.4
20260906181026 36 99 8.0 9.7 0.00 0.00 0.00 43 1012.3
20260906180926 36 63 4.8 4.8 0.00 0.00 0.00 43 1012.1
20260906180726 36 63 0.0 6.4 0.00 0.00 0.00 43 1012.4
20260906180626 36 250 3.2 6.4 0.00 0.00 0.00 44 1012.2
20260906180526 36 182 4.8 6.4 0.00 0.00 0.00 45 1012.2
20260906180425 36 219 1.6 6.4 0.00 0.00 0.00 44 1012.5
20260906180326 36 244 3.2 6.4 0.00 0.00 0.00 44 1012.4
20260906180226 36 308 3.2 6.4 0.00 0.00 0.00 44 1012.7
20260906180026 36 188 0.0 6.4 0.00 0.00 0.00 43 1012.5
20260906175926 36 153 6.4 6.4 0.00 0.00 0.00 43 1012.5
20260906175826 36 46 3.2 6.4 0.00 0.00 0.00 43 1012.6
20260906175737 36 218 1.6 6.4 0.00 0.00 0.00 43 1012.4
20260906175637 36 166 0.0 6.4 0.00 0.00 0.00 44 1012.6
20260906175526 36 308 6.4 6.4 0.00 0.00 0.00 44 1012.5
20260906175126 35 315 3.2 6.4 0.00 0.00 0.00 45 1012.4
20260906175026 35 249 1.6 3.2 0.00 0.00 0.00 45 1012.6
20260906174927 35 209 3.2 6.4 0.00 0.00 0.00 45 1012.6
20260906174826 35 305 1.6 6.4 0.00 0.00 0.00 44 1012.6
20260906174737 35 54 0.0 9.7 0.00 0.00 0.00 45 1012.7
20260906174626 35 173 1.6 9.7 0.00 0.00 0.00 45 1012.6
20260906174526 35 198 1.6 3.2 0.00 0.00 0.00 45 1012.7
20260906174437 35 310 3.2 4.8 0.00 0.00 0.00 45 1012.8
20260906174326 35 350 1.6 4.8 0.00 0.00 0.00 45 1012.7
20260906174226 35 96 3.2 6.4 0.00 0.00 0.00 46 1012.9
20260906174126 35 261 1.6 6.4 0.00 0.00 0.00 45 1012.8
20260906174026 35 235 3.2 6.4 0.00 0.00 0.00 45 1012.8
20260906173936 35 127 1.6 6.4 0.00 0.00 0.00 44 1012.7
20260906173826 35 97 4.8 6.4 0.00 0.00 0.00 45 1013.0
20260906173726 35 196 3.2 6.4 0.00 0.00 0.00 45 1012.8
20260906173626 35 47 1.6 4.8 0.00 0.00 0.00 45 1012.8
20260906173527 35 301 0.0 6.4 0.00 0.00 0.00 44 1012.8
20260906173437 35 195 3.2 6.4 0.00 0.00 0.00 44 1012.9
20260906173326 35 72 3.2 9.7 0.00 0.00 0.00 44 1013.0
20260906173226 35 89 4.8 9.7 0.00 0.00 0.00 44 1012.9
20260906173136 35 209 3.2 3.2 0.00 0.00 0.00 45 1013.1
20260906173026 35 87 1.6 6.4 0.00 0.00 0.00 46 1013.1
20260906172926 35 213 1.6 6.4 0.00 0.00 0.00 46 1013.2
20260906172826 35 200 4.8 8.0 0.00 0.00 0.00 47 1013.1
20260906172727 35 242 3.2 8.0 0.00 0.00 0.00 47 1013.3
20260906172626 35 13 0.0 6.4 0.00 0.00 0.00 46 1013.1
20260906172525 35 115 3.2 6.4 0.00 0.00 0.00 47 1013.3
20260906172436 35 296 3.2 6.4 0.00 0.00 0.00 46 1013.2
20260906172325 35 259 3.2 4.8 0.00 0.00 0.00 47 1013.2
20260906172226 35 320 1.6 6.4 0.00 0.00 0.00 47 1013.2
20260906171925 35 27 0.0 8.0 0.00 0.00 0.00 46 1013.1
20260906171825 35 72 8.0 6.4 0.00 0.00 0.00 46 1013.1
20260906171725 35 283 3.2 6.4 0.00 0.00 0.00 46 1013.1
20260906171625 35 191 3.2 4.8 0.00 0.00 0.00 47 1013.4
20260906171526 35 252 4.8 3.2 0.00 0.00 0.00 47 1013.4
20260906171426 35 296 1.6 3.2 0.00 0.00 0.00 47 1013.0
20260906171325 35 272 0.0 6.4 0.00 0.00 0.00 47 1013.3
20260906171226 35 51 1.6 6.4 0.00 0.00 0.00 47 1013.4
20260906171126 35 219 4.8 8.0 0.00 0.00 0.00 47 1013.3
20260906171026 35 236 0.0 8.0 0.00 0.00 0.00 47 1013.1
20260906170925 35 230 8.0 6.4 0.00 0.00 0.00 47 1013.2
20260906170825 35 227 4.8 4.8 0.00 0.00 0.00 47 1013.3
20260906170725 35 32 1.6 4.8 0.00 0.00 0.00 47 1013.2
20260906170625 35 282 0.0 8.0 0.00 0.00 0.00 47 1013.2
20260906170426 35 314 3.2 4.8 0.00 0.00 0.00 48 1013.3
20260906170326 35 82 4.8 4.8 0.00 0.00 0.00 49 1013.3
20260906170126 35 269 0.0 4.8 0.00 0.00 0.00 49 1013.2
20260906170027 35 220 3.2 4.8 0.00 0.00 0.00 49 1013.1
20260906165927 34 101 1.6 4.8 0.00 0.00 0.00 49 1013.2
20260906165836 34 101 4.8 6.4 0.00 0.00 0.00 49 1013.6
20260906165727 34 255 4.8 8.0 0.00 0.00 0.00 48 1013.2
20260906165626 34 148 1.6 8.0 0.00 0.00 0.00 48 1013.3
20260906165526 34 138 3.2 8.0 0.00 0.00 0.00 49 1013.3
20260906165437 35 170 3.2 8.0 0.00 0.00 0.00 48 1013.3
20260906165326 35 134 4.8 8.0 0.00 0.00 0.00 48 1013.4
20260906165226 35 146 0.0 8.0 0.00 0.00 0.00 49 1013.2
20260906165027 35 220 3.2 6.4 0.00 0.00 0.00 49 1013.2
20260906164926 34 220 4.8 6.4 0.00 0.00 0.00 48 1013.3
20260906164826 34 301 1.6 9.7 0.00 0.00 0.00 49 1013.3
20260906164727 34 202 4.8 9.7 0.00 0.00 0.00 49 1013.5
20260906164627 34 206 9.7 4.8 0.00 0.00 0.00 50 1013.3
20260906164526 34 255 3.2 6.4 0.00 0.00 0.00 50 1013.4
20260906164426 34 119 3.2 6.4 0.00 0.00 0.00 49 1013.6
20260906164326 34 117 4.8 6.4 0.00 0.00 0.00 49 1013.5
20260906164226 34 258 4.8 4.8 0.00 0.00 0.00 50 1013.6
20260906163926 34 324 0.0 6.4 0.00 0.00 0.00 51 1013.7
20260906163827 33 125 3.2 3.2 0.00 0.00 0.00 52 1013.4
20260906163726 33 294 0.0 3.2 0.00 0.00 0.00 51 1013.6
20260906163626 33 31 1.6 4.8 0.00 0.00 0.00 51 1013.6
20260906163526 33 213 1.6 6.4 0.00 0.00 0.00 51 1013.6
20260906163426 33 195 3.2 6.4 0.00 0.00 0.00 51 1013.5
20260906163326 33 209 3.2 6.4 0.00 0.00 0.00 50 1013.4
20260906163226 33 98 6.4 8.0 0.00 0.00 0.00 49 1013.5
20260906163126 33 336 3.2 6.4 0.00 0.00 0.00 49 1013.7
20260906163026 33 103 3.2 6.4 0.00 0.00 0.00 50 1013.6
20260906162927 33 82 6.4 6.4 0.00 0.00 0.00 50 1013.7
20260906162836 33 133 3.2 4.8 0.00 0.00 0.00 51 1013.7
20260906162726 33 74 4.8 4.8 0.00 0.00 0.00 51 1013.5
20260906162626 33 22 0.0 6.4 0.00 0.00 0.00 51 1013.6
20260906162526 33 67 3.2 6.4 0.00 0.00 0.00 51 1013.7
20260906162426 33 187 1.6 9.7 0.00 0.00 0.00 50 1013.6
20260906162326 33 132 0.0 9.7 0.00 0.00 0.00 50 1013.7
20260906162226 33 352 3.2 4.8 0.00 0.00 0.00 50 1013.5
20260906162126 33 168 4.8 6.4 0.00 0.00 0.00 51 1013.6
20260906162026 33 271 1.6 6.4 0.00 0.00 0.00 51 1013.4
20260906161926 33 67 3.2 4.8 0.00 0.00 0.00 51 1013.6
20260906161825 33 112 0.0 4.8 0.00 0.00 0.00 51 1013.4
20260906161726 33 156 3.2 6.4 0.00 0.00 0.00 52 1013.5
20260906161626 33 57 1.6 8.0 0.00 0.00 0.00 52 1013.5
20260906161526 33 208 1.6 8.0 0.00 0.00 0.00 52 1013.6
20260906161426 33 47 1.6 8.0 0.00 0.00 0.00 52 1013.5
20260906161326 33 245 4.8 6.4 0.00 0.00 0.00 52 1013.5
20260906161225 33 234 3.2 6.4 0.00 0.00 0.00 52 1013.6
20260906161126 33 114 4.8 3.2 0.00 0.00 0.00 52 1013.5
20260906161026 33 148 3.2 3.2 0.00 0.00 0.00 53 1013.3
20260906160926 33 302 1.6 6.4 0.00 0.00 0.00 53 1013.6
20260906160826 33 203 0.0 6.4 0.00 0.00 0.00 52 1013.4
20260906160726 33 95 3.2 6.4 0.00 0.00 0.00 52 1013.4
20260906160636 33 58 0.0 6.4 0.00 0.00 0.00 52 1013.5
20260906160536 33 200 1.6 6.4 0.00 0.00 0.00 52 1013.4
20260906160426 33 120 3.2 3.2 0.00 0.00 0.00 52 1013.5
20260906160326 33 334 3.2 3.2 0.00 0.00 0.00 52 1013.6
20260906160236 33 295 0.0 6.4 0.00 0.00 0.00 52 1013.5
20260906160126 33 13 3.2 6.4 0.00 0.00 0.00 52 1013.5
20260906155926 33 352 1.6 4.8 0.00 0.00 0.00 52 1013.6
20260906155726 33 240 1.6 4.8 0.00 0.00 0.00 54 1013.5
20260906155536 33 253 3.2 6.4 0.00 0.00 0.00 54 1013.6
20260906155426 33 283 0.0 6.4 0.00 0.00 0.00 54 1013.6
20260906155336 33 66 3.2 6.4 0.00 0.00 0.00 53 1013.4
20260906155226 33 163 3.2 3.2 0.00 0.00 0.00 54 1013.5
20260906155026 33 160 1.6 4.8 0.00 0.00 0.00 55 1013.8
20260906154926 33 134 3.2 4.8 0.00 0.00 0.00 54 1013.4
20260906154826 33 308 3.2 6.4 0.00 0.00 0.00 54 1013.6
20260906154726 33 119 3.2 6.4 0.00 0.00 0.00 56 1013.4
20260906154626 33 166 3.2 4.8 0.00 0.00 0.00 57 1013.7
20260906154526 33 329 4.8 4.8 0.00 0.00 0.00 58 1013.4
20260906154426 33 215 0.0 4.8 0.00 0.00 0.00 58 1013.6
20260906154327 33 188 3.2 3.2 0.00 0.00 0.00 57 1013.4
20260906154036 33 334 0.0 6.4 0.00 0.00 0.00 57 1013.4
20260906153936 33 106 3.2 3.2 0.00 0.00 0.00 57 1013.5
20260906153826 33 301 1.6 4.8 0.00 0.00 0.00 58 1013.4
20260906153726 33 226 1.6 4.8 0.00 0.00 0.00 58 1013.6
20260906153627 33 265 3.2 3.2 0.00 0.00 0.00 59 1013.5
20260906153426 32 227 0.0 6.4 0.00 0.00 0.00 59 1013.2
20260906153337 33 180 3.2 6.4 0.00 0.00 0.00 59 1013.5
20260906153226 33 75 1.6 3.2 0.00 0.00 0.00 58 1013.2
20260906153126 33 48 3.2 6.4 0.00 0.00 0.00 58 1013.5
20260906153026 33 345 3.2 6.4 0.00 0.00 0.00 58 1013.5
20260906152926 33 202 0.0 4.8 0.00 0.00 0.00 58 1013.3
20260906152826 33 120 4.8 6.4 0.00 0.00 0.00 58 1013.5
20260906152726 33 34 4.8 6.4 0.00 0.00 0.00 57 1013.4
20260906152626 33 95 3.2 4.8 0.00 0.00 0.00 56 1013.4
20260906152526 33 135 3.2 3.2 0.00 0.00 0.00 57 1013.3
20260906152226 33 195 0.0 4.8 0.00 0.00 0.00 57 1013.4
20260906152127 33 88 3.2 3.2 0.00 0.00 0.00 58 1013.3
20260906152027 33 150 0.0 4.8 0.00 0.00 0.00 59 1013.3
20260906151926 33 119 3.2 4.8 0.00 0.00 0.00 59 1013.3
20260906151826 33 192 0.0 3.2 0.00 0.00 0.00 59 1013.2
20260906151727 32 258 1.6 4.8 0.00 0.00 0.00 59 1013.3
20260906151626 32 252 0.0 4.8 0.00 0.00 0.00 59 1013.3
20260906151526 32 111 1.6 6.4 0.00 0.00 0.00 59 1013.4
20260906151426 32 181 0.0 6.4 0.00 0.00 0.00 59 1013.2
20260906151327 32 98 4.8 6.4 0.00 0.00 0.00 59 1013.3
20260906151227 32 228 1.6 6.4 0.00 0.00 0.00 59 1013.3
20260906151126 32 290 0.0 0.0 0.00 0.00 0.00 58 1013.2
20260906150726 33 55 0.0 4.8 0.00 0.00 0.00 58 1013.3
20260906150626 33 349 3.2 3.2 0.00 0.00 0.00 58 1013.3
20260906150527 33 259 1.6 3.2 0.00 0.00 0.00 58 1013.5
20260906150436 33 205 0.0 3.2 0.00 0.00 0.00 58 1013.2
20260906150136 33 266 1.6 3.2 0.00 0.00 0.00 58 1013.2
20260906145926 32 333 0.0 3.2 0.00 0.00 0.00 60 1013.3
20260906145825 32 119 1.6 3.2 0.00 0.00 0.00 61 1013.3
20260906145726 32 317 1.6 3.2 0.00 0.00 0.00 61 1013.2
20260906145626 32 294 1.6 3.2 0.00 0.00 0.00 61 1013.4
20260906145536 32 281 1.6 3.2 0.00 0.00 0.00 62 1013.1
20260906145426 32 224 1.6 6.4 0.00 0.00 0.00 62 1013.3
20260906145326 32 1 0.0 4.8 0.00 0.00 0.00 62 1013.4
20260906145236 32 87 3.2 3.2 0.00 0.00 0.00 62 1013.3
20260906145026 32 191 1.6 3.2 0.00 0.00 0.00 62 1013.4
20260906144826 32 164 0.0 3.2 0.00 0.00 0.00 62 1013.1
20260906144725 32 5 3.2 3.2 0.00 0.00 0.00 62 1013.6
20260906144626 32 109 0.0 1.6 0.00 0.00 0.00 62 1013.4
20260906144536 32 251 1.6 3.2 0.00 0.00 0.00 63 1013.4
20260906144326 32 151 0.0 3.2 0.00 0.00 0.00 63 1013.3
20260906144236 32 101 1.6 3.2 0.00 0.00 0.00 63 1013.4
20260906144026 31 209 0.0 3.2 0.00 0.00 0.00 63 1013.3
20260906143937 31 153 1.6 6.4 0.00 0.00 0.00 64 1013.3
20260906143836 31 87 0.0 6.4 0.00 0.00 0.00 64 1013.3
20260906143636 31 55 1.6 3.2 0.00 0.00 0.00 63 1013.3
20260906143026 31 195 0.0 4.8 0.00 0.00 0.00 65 1013.5
20260906142937 31 32 1.6 3.2 0.00 0.00 0.00 65 1013.5
20260906142636 31 69 0.0 6.4 0.00 0.00 0.00 65 1013.6
20260906142526 31 323 1.6 6.4 0.00 0.00 0.00 64 1013.5
20260906142326 31 210 0.0 4.8 0.00 0.00 0.00 64 1013.5
20260906142226 31 198 1.6 3.2 0.00 0.00 0.00 64 1013.4
20260906142126 31 248 0.0 3.2 0.00 0.00 0.00 64 1013.4
20260906142025 31 211 3.2 3.2 0.00 0.00 0.00 64 1013.5
20260906141726 31 227 0.0 3.2 0.00 0.00 0.00 65 1013.4
20260906141626 31 165 1.6 3.2 0.00 0.00 0.00 65 1013.7
20260906140636 30 218 0.0 1.6 0.00 0.00 0.00 68 1013.6
20260906140526 30 186 1.6 4.8 0.00 0.00 0.00 68 1013.3
20260906140325 30 224 0.0 3.2 0.00 0.00 0.00 69 1013.3
20260906140225 30 335 1.6 3.2 0.00 0.00 0.00 69 1013.3
20260906140136 30 327 0.0 3.2 0.00 0.00 0.00 69 1013.7
20260906140025 30 95 3.2 4.8 0.00 0.00 0.00 69 1013.5
20260906134225 29 131 0.0 3.2 0.00 0.00 0.00 71 1013.4
20260906134125 29 301 1.6 1.6 0.00 0.00 0.00 72 1013.5
20260906133736 28 248 0.0 3.2 0.00 0.00 0.00 75 1013.4
20260906133635 28 248 1.6 3.2 0.00 0.00 0.00 75 1013.5
20260906133525 28 338 3.2 3.2 0.00 0.00 0.00 75 1013.7
20260906133426 28 13 0.0 3.2 0.00 0.00 0.00 74 1013.4
20260906133325 28 123 3.2 3.2 0.00 0.00 0.00 74 1013.5
20260906133026 28 154 0.0 3.2 0.00 0.00 0.00 76 1013.6
20260906132926 28 193 1.6 3.2 0.00 0.00 0.00 76 1013.5
20260906132735 28 230 0.0 4.8 0.00 0.00 0.00 75 1013.4
20260906132526 28 101 3.2 3.2 0.00 0.00 0.00 74 1013.7
20260906132425 28 88 1.6 3.2 0.00 0.00 0.00 74 1013.6
20260906132326 28 93 1.6 3.2 0.00 0.00 0.00 74 1013.5
20260906132036 28 37 0.0 3.2 0.00 0.00 0.00 76 1013.6
20260906131927 28 334 1.6 3.2 0.00 0.00 0.00 76 1013.7
20260906131527 28 279 0.0 4.8 0.00 0.00 0.00 77 1013.4
20260906131426 28 82 1.6 4.8 0.00 0.00 0.00 77 1013.5
20260906131326 28 99 3.2 6.4 0.00 0.00 0.00 77 1013.4
20260906131226 28 98 1.6 6.4 0.00 0.00 0.00 77 1013.6
20260906131127 28 211 3.2 4.8 0.00 0.00 0.00 78 1013.5
20260906131025 27 195 3.2 4.8 0.00 0.00 0.00 78 1013.7
20260906130926 27 211 0.0 4.8 0.00 0.00 0.00 77 1013.6
20260906130837 27 73 1.6 3.2 0.00 0.00 0.00 77 1013.6
20260906130726 27 261 1.6 1.6 0.00 0.00 0.00 78 1013.5
20260906130426 27 209 0.0 4.8 0.00 0.00 0.00 78 1013.7
20260906130326 27 76 1.6 3.2 0.00 0.00 0.00 79 1013.7
20260906130227 27 105 0.0 4.8 0.00 0.00 0.00 79 1013.6
20260906130126 27 208 3.2 4.8 0.00 0.00 0.00 79 1013.5
20260906130027 27 188 1.6 4.8 0.00 0.00 0.00 79 1013.5
20260906125927 27 178 3.2 4.8 0.00 0.00 0.00 79 1013.7
20260906125827 27 205 3.2 3.2 0.00 0.00 0.00 80 1013.6
20260906125726 27 200 1.6 3.2 0.00 0.00 0.00 80 1013.4
20260906125627 27 298 0.0 3.2 0.00 0.00 0.00 81 1013.4
20260906125526 27 353 1.6 3.2 0.00 0.00 0.00 81 1013.7
20260906125437 27 273 0.0 4.8 0.00 0.00 0.00 81 1013.7
20260906125326 26 26 1.6 4.8 0.00 0.00 0.00 81 1013.5
20260906125226 26 65 3.2 3.2 0.00 0.00 0.00 82 1013.5
20260906125026 26 314 3.2 6.4 0.00 0.00 0.00 82 1013.8
20260906124926 26 158 1.6 6.4 0.00 0.00 0.00 83 1013.6
20260906124827 26 282 3.2 6.4 0.00 0.00 0.00 83 1013.6
20260906124726 26 246 3.2 6.4 0.00 0.00 0.00 83 1013.4
20260906124627 26 330 4.8 6.4 0.00 0.00 0.00 83 1013.7
20260906124427 26 344 3.2 3.2 0.00 0.00 0.00 85 1013.8
20260906124326 26 353 0.0 4.8 0.00 0.00 0.00 85 1013.7
20260906124227 26 355 1.6 4.8 0.00 0.00 0.00 85 1013.5
20260906124126 25 0 0.0 4.8 0.00 0.00 0.00 86 1013.8
20260906123927 25 359 1.6 6.4 0.00 0.00 0.00 86 1013.5
20260906123836 25 345 4.8 6.4 0.00 0.00 0.00 86 1013.6
20260906123726 25 353 3.2 6.4 0.00 0.00 0.00 86 1013.5
20260906123626 25 3 1.6 6.4 0.00 0.00 0.00 87 1013.5
20260906123526 25 13 3.2 6.4 0.00 0.00 0.00 87 1013.5
20260906123427 25 2 3.2 6.4 0.00 0.00 0.00 87 1013.7
20260906123336 25 340 1.6 4.8 0.00 0.00 0.00 87 1013.7
20260906123227 25 354 4.8 4.8 0.00 0.00 0.00 87 1013.5
20260906123126 25 345 1.6 4.8 0.00 0.00 0.00 87 1013.4
20260906123026 25 354 4.8 4.8 0.00 0.00 0.00 87 1013.5
20260906122736 25 340 1.6 8.0 0.00 0.00 0.00 87 1013.4
20260906122625 25 318 3.2 6.4 0.00 0.00 0.00 87 1013.4
20260906122536 25 332 4.8 3.2 0.00 0.00 0.00 87 1013.6
20260906122425 25 39 0.0 3.2 0.00 0.00 0.00 87 1013.5
20260906122325 25 337 3.2 3.2 0.00 0.00 0.00 87 1013.3
20260906122226 25 327 3.2 3.2 0.00 0.00 0.00 87 1013.5
20260906122136 25 40 1.6 3.2 0.00 0.00 0.00 86 1013.4
20260906122026 25 39 3.2 4.8 0.00 0.00 0.00 86 1013.4
20260906121925 25 351 3.2 4.8 0.00 0.00 0.00 86 1013.4
20260906121826 25 32 3.2 3.2 0.00 0.00 0.00 86 1013.3
20260906121426 25 296 1.6 4.8 0.00 0.00 0.00 86 1013.5
20260906121325 25 284 3.2 4.8 0.00 0.00 0.00 86 1013.2
20260906121226 25 221 0.0 4.8 0.00 0.00 0.00 86 1013.3
20260906121126 25 191 3.2 3.2 0.00 0.00 0.00 87 1013.4
20260906121028 25 192 3.2 3.2 0.00 0.00 0.00 86 1013.2
20260906120826 25 10 0.0 3.2 0.00 0.00 0.00 86 1013.4
20260906120735 25 134 1.6 3.2 0.00 0.00 0.00 86 1013.4
20260906120626 25 89 3.2 1.6 0.00 0.00 0.00 86 1013.2
20260906115927 25 269 0.0 4.8 0.00 0.00 0.00 86 1013.1
20260906115827 25 320 1.6 4.8 0.00 0.00 0.00 86 1013.2
20260906115737 25 271 3.2 3.2 0.00 0.00 0.00 86 1013.2
20260906115627 25 72 0.0 3.2 0.00 0.00 0.00 86 1013.3
20260906115526 25 48 1.6 3.2 0.00 0.00 0.00 86 1013.4
20260906115326 25 200 0.0 4.8 0.00 0.00 0.00 86 1013.4
20260906115236 25 189 3.2 4.8 0.00 0.00 0.00 86 1013.2
20260906115126 25 235 0.0 3.2 0.00 0.00 0.00 86 1013.0
20260906115026 25 212 1.6 3.2 0.00 0.00 0.00 86 1013.1
20260906114726 25 86 0.0 3.2 0.00 0.00 0.00 86 1013.3
20260906114627 25 259 3.2 0.0 0.00 0.00 0.00 86 1013.3
20260906102926 26 44 0.0 1.6 0.00 0.00 0.00 84 1012.9
20260906102826 26 45 1.6 1.6 0.00 0.00 0.00 83 1012.7
20260906100725 26 309 0.0 1.6 0.00 0.00 0.00 83 1012.6
20260906100626 26 316 1.6 0.0 0.00 0.00 0.00 83 1012.2
20260906090027 26 242 0.0 1.6 0.00 0.00 0.00 79 1012.0
20260906085926 26 233 1.6 0.0 0.00 0.00 0.00 79 1011.8
20260906084226 27 247 0.0 1.6 0.00 0.00 0.00 78 1011.9
20260906084126 27 308 1.6 3.2 0.00 0.00 0.00 78 1011.7
20260906083326 27 255 0.0 1.6 0.00 0.00 0.00 77 1011.8
20260906083226 27 255 1.6 1.6 0.00 0.00 0.00 77 1011.8
20260906081726 27 285 0.0 1.6 0.00 0.00 0.00 76 1011.8
20260906081627 27 316 1.6 1.6 0.00 0.00 0.00 76 1011.8
20260906081326 27 258 0.0 1.6 0.00 0.00 0.00 76 1011.7
20260906081227 27 284 1.6 1.6 0.00 0.00 0.00 76 1011.8
20260906080926 27 296 0.0 3.2 0.00 0.00 0.00 76 1011.7
20260906080836 27 215 3.2 3.2 0.00 0.00 0.00 76 1011.9
20260906080727 27 242 1.6 1.6 0.00 0.00 0.00 76 1012.0
20260906080626 27 234 1.6 3.2 0.00 0.00 0.00 76 1011.7
20260906080426 27 269 0.0 3.2 0.00 0.00 0.00 76 1011.9
20260906080127 27 311 1.6 1.6 0.00 0.00 0.00 76 1012.0
20260906075926 27 291 0.0 1.6 0.00 0.00 0.00 75 1011.9
20260906075827 27 239 1.6 1.6 0.00 0.00 0.00 76 1012.1
20260906075626 27 315 0.0 1.6 0.00 0.00 0.00 76 1012.0
20260906075536 27 314 1.6 1.6 0.00 0.00 0.00 76 1011.9
20260906075336 27 330 0.0 3.2 0.00 0.00 0.00 75 1011.9
20260906075226 27 243 3.2 3.2 0.00 0.00 0.00 75 1012.0
20260906075026 27 254 0.0 1.6 0.00 0.00 0.00 75 1012.2
20260906074927 27 255 1.6 1.6 0.00 0.00 0.00 75 1012.1
20260906074326 27 291 0.0 3.2 0.00 0.00 0.00 75 1011.9
20260906074237 27 225 1.6 3.2 0.00 0.00 0.00 75 1012.1
20260906074126 27 218 1.6 3.2 0.00 0.00 0.00 75 1012.0
20260906074026 27 230 0.0 3.2 0.00 0.00 0.00 75 1011.8
20260906073926 27 251 1.6 1.6 0.00 0.00 0.00 75 1011.7
20260906073836 27 238 0.0 3.2 0.00 0.00 0.00 75 1011.8
20260906073726 27 320 1.6 3.2 0.00 0.00 0.00 75 1012.0
20260906072128 27 224 0.0 3.2 0.00 0.00 0.00 74 1011.7
20260906072028 27 294 3.2 3.2 0.00 0.00 0.00 74 1012.0
20260906071926 27 221 3.2 3.2 0.00 0.00 0.00 74 1011.8
20260906071826 27 244 1.6 1.6 0.00 0.00 0.00 74 1011.9
20260906071727 27 237 1.6 3.2 0.00 0.00 0.00 74 1011.8
20260906071426 27 266 0.0 3.2 0.00 0.00 0.00 74 1011.8
20260906071327 27 265 1.6 1.6 0.00 0.00 0.00 74 1012.0
20260906071126 27 229 0.0 3.2 0.00 0.00 0.00 74 1011.8
20260906071037 27 257 1.6 1.6 0.00 0.00 0.00 74 1011.9
20260906070627 27 343 0.0 1.6 0.00 0.00 0.00 73 1012.1
20260906070527 27 290 1.6 1.6 0.00 0.00 0.00 73 1012.1
20260906070126 27 62 0.0 3.2 0.00 0.00 0.00 73 1012.0
20260906070027 27 327 1.6 3.2 0.00 0.00 0.00 73 1012.1
20260906065726 28 300 0.0 3.2 0.00 0.00 0.00 73 1012.1
20260906065626 28 289 1.6 3.2 0.00 0.00 0.00 73 1012.1
20260906065426 28 236 0.0 3.2 0.00 0.00 0.00 73 1012.1
20260906065226 28 293 1.6 3.2 0.00 0.00 0.00 72 1012.0
20260906065137 28 293 3.2 3.2 0.00 0.00 0.00 72 1012.0
20260906064926 28 265 1.6 4.8 0.00 0.00 0.00 72 1012.3
20260906064836 28 23 0.0 4.8 0.00 0.00 0.00 72 1012.1
20260906064726 28 250 3.2 3.2 0.00 0.00 0.00 72 1012.1
20260906064637 28 206 0.0 3.2 0.00 0.00 0.00 72 1012.1
20260906064526 28 86 1.6 3.2 0.00 0.00 0.00 72 1012.1
20260906064426 28 213 0.0 3.2 0.00 0.00 0.00 72 1012.1
20260906064326 28 248 3.2 6.4 0.00 0.00 0.00 72 1012.1
20260906063837 28 113 0.0 1.6 0.00 0.00 0.00 71 1012.2
20260906063726 28 286 1.6 1.6 0.00 0.00 0.00 71 1012.3
20260906063426 28 355 0.0 3.2 0.00 0.00 0.00 70 1012.1
20260906063327 28 296 1.6 3.2 0.00 0.00 0.00 70 1012.1
20260906063027 28 293 0.0 3.2 0.00 0.00 0.00 70 1012.2
20260906062938 28 271 1.6 3.2 0.00 0.00 0.00 70 1012.2
20260906061626 28 329 0.0 1.6 0.00 0.00 0.00 69 1012.0
20260906061536 28 254 1.6 1.6 0.00 0.00 0.00 69 1012.2
20260906061127 28 222 0.0 4.8 0.00 0.00 0.00 69 1012.3
20260906061026 28 247 3.2 3.2 0.00 0.00 0.00 68 1012.2
20260906060927 28 246 1.6 4.8 0.00 0.00 0.00 68 1012.3
20260906060226 28 280 0.0 3.2 0.00 0.00 0.00 68 1012.3
20260906060126 28 304 1.6 3.2 0.00 0.00 0.00 67 1012.2
20260906060026 28 285 3.2 1.6 0.00 0.00 0.00 67 1012.3
20260906055826 28 289 0.0 3.2 0.00 0.00 0.00 67 1012.1
20260906055726 28 227 1.6 1.6 0.00 0.00 0.00 67 1012.2
20260906055425 28 228 0.0 3.2 0.00 0.00 0.00 67 1012.2
20260906055326 28 237 1.6 3.2 0.00 0.00 0.00 67 1012.2
20260906054926 28 311 0.0 3.2 0.00 0.00 0.00 66 1012.1
20260906054826 28 208 1.6 3.2 0.00 0.00 0.00 66 1011.9
20260906054726 28 0 0.0 3.2 0.00 0.00 0.00 66 1011.7
20260906054626 28 222 3.2 1.6 0.00 0.00 0.00 66 1012.1
20260906054426 28 339 0.0 3.2 0.00 0.00 0.00 66 1011.9
20260906054326 28 305 3.2 3.2 0.00 0.00 0.00 66 1012.2
20260906054026 28 255 0.0 3.2 0.00 0.00 0.00 66 1012.2
20260906053926 28 224 3.2 3.2 0.00 0.00 0.00 66 1012.1
20260906051926 29 223 0.0 3.2 0.00 0.00 0.00 65 1012.1
20260906051827 29 299 3.2 3.2 0.00 0.00 0.00 65 1012.0
20260906051627 29 269 0.0 3.2 0.00 0.00 0.00 65 1011.8
20260906051537 29 241 3.2 3.2 0.00 0.00 0.00 65 1011.9
20260906051227 29 230 0.0 3.2 0.00 0.00 0.00 64 1012.0
20260906051027 29 227 1.6 3.2 0.00 0.00 0.00 64 1011.8
20260906050326 29 211 0.0 3.2 0.00 0.00 0.00 64 1012.1
20260906050225 29 214 1.6 1.6 0.00 0.00 0.00 64 1012.0
20260906045935 29 330 0.0 3.2 0.00 0.00 0.00 64 1012.0
20260906045826 29 311 1.6 4.8 0.00 0.00 0.00 64 1012.0
20260906045626 29 212 0.0 3.2 0.00 0.00 0.00 64 1012.1
20260906045526 29 153 1.6 3.2 0.00 0.00 0.00 64 1011.8
20260906045326 29 326 0.0 3.2 0.00 0.00 0.00 64 1011.9
20260906045225 29 78 1.6 3.2 0.00 0.00 0.00 64 1011.9
20260906045125 29 107 1.6 1.6 0.00 0.00 0.00 64 1012.0
20260906044826 29 340 0.0 1.6 0.00 0.00 0.00 64 1011.9
20260906044735 29 309 1.6 4.8 0.00 0.00 0.00 64 1011.9
20260906044625 29 221 0.0 4.8 0.00 0.00 0.00 64 1011.9
20260906044535 29 210 3.2 3.2 0.00 0.00 0.00 64 1012.0
20260906044335 29 254 0.0 3.2 0.00 0.00 0.00 64 1012.0
20260906044226 29 268 1.6 3.2 0.00 0.00 0.00 64 1012.0
20260906044026 29 5 0.0 3.2 0.00 0.00 0.00 64 1012.2
20260906043936 29 264 3.2 3.2 0.00 0.00 0.00 64 1012.1
20260906043827 29 221 3.2 3.2 0.00 0.00 0.00 64 1011.9
20260906043626 29 100 0.0 3.2 0.00 0.00 0.00 64 1012.1
20260906043525 29 245 1.6 3.2 0.00 0.00 0.00 64 1011.9
20260906043425 29 255 0.0 3.2 0.00 0.00 0.00 64 1012.0
20260906043335 29 43 1.6 4.8 0.00 0.00 0.00 64 1012.1
20260906043125 29 91 3.2 3.2 0.00 0.00 0.00 64 1012.1
20260906043026 29 222 3.2 3.2 0.00 0.00 0.00 64 1012.2
20260906042726 29 222 0.0 3.2 0.00 0.00 0.00 64 1012.3
20260906042626 29 275 1.6 4.8 0.00 0.00 0.00 64 1012.1
20260906042536 29 135 0.0 4.8 0.00 0.00 0.00 64 1012.1
20260906042426 29 36 3.2 3.2 0.00 0.00 0.00 64 1012.2
20260906042326 30 251 1.6 3.2 0.00 0.00 0.00 63 1012.0
20260906042125 30 224 0.0 4.8 0.00 0.00 0.00 63 1012.2
20260906042026 30 199 1.6 3.2 0.00 0.00 0.00 63 1012.0
20260906041936 30 186 3.2 3.2 0.00 0.00 0.00 64 1012.1
20260906041826 30 205 0.0 3.2 0.00 0.00 0.00 63 1011.9
20260906041736 30 296 1.6 4.8 0.00 0.00 0.00 63 1012.2
20260906041526 30 280 1.6 4.8 0.00 0.00 0.00 63 1012.0
20260906041426 30 214 4.8 3.2 0.00 0.00 0.00 63 1012.1
20260906041326 30 235 0.0 3.2 0.00 0.00 0.00 63 1012.1
20260906041226 30 335 3.2 6.4 0.00 0.00 0.00 63 1012.0
20260906041125 30 353 0.0 6.4 0.00 0.00 0.00 63 1012.1
20260906041026 30 195 3.2 4.8 0.00 0.00 0.00 63 1012.1
20260906040925 30 147 0.0 3.2 0.00 0.00 0.00 63 1012.1
20260906040826 30 139 3.2 3.2 0.00 0.00 0.00 63 1011.9
20260906040526 30 283 0.0 4.8 0.00 0.00 0.00 63 1011.8
20260906040426 30 268 3.2 4.8 0.00 0.00 0.00 63 1011.8
20260906040225 30 263 0.0 4.8 0.00 0.00 0.00 63 1011.9
20260906040126 30 238 1.6 4.8 0.00 0.00 0.00 63 1011.8
20260906040026 30 66 3.2 4.8 0.00 0.00 0.00 63 1011.8
20260906035926 30 264 1.6 4.8 0.00 0.00 0.00 63 1011.9
20260906035825 30 227 3.2 4.8 0.00 0.00 0.00 63 1012.1
20260906035725 30 24 3.2 4.8 0.00 0.00 0.00 63 1011.9
20260906035626 30 224 1.6 4.8 0.00 0.00 0.00 63 1011.9
20260906035336 30 24 1.6 4.8 0.00 0.00 0.00 62 1012.0
20260906035226 30 214 0.0 4.8 0.00 0.00 0.00 62 1011.8
20260906035125 30 142 1.6 3.2 0.00 0.00 0.00 62 1011.8
20260906035025 30 240 0.0 3.2 0.00 0.00 0.00 62 1012.1
20260906034925 30 204 1.6 4.8 0.00 0.00 0.00 62 1011.9
20260906034826 30 222 3.2 4.8 0.00 0.00 0.00 62 1011.8
20260906034726 30 40 3.2 4.8 0.00 0.00 0.00 62 1011.8
20260906034625 30 8 3.2 4.8 0.00 0.00 0.00 62 1011.8
20260906034525 30 323 3.2 3.2 0.00 0.00 0.00 62 1012.0
20260906034426 30 222 0.0 3.2 0.00 0.00 0.00 62 1012.1
20260906034325 30 269 1.6 3.2 0.00 0.00 0.00 62 1012.0
20260906034135 30 289 0.0 4.8 0.00 0.00 0.00 62 1011.9
20260906034026 30 236 3.2 3.2 0.00 0.00 0.00 62 1012.1
20260906033926 30 276 1.6 4.8 0.00 0.00 0.00 62 1011.8
20260906033735 30 326 0.0 4.8 0.00 0.00 0.00 62 1012.0
20260906033626 30 193 3.2 3.2 0.00 0.00 0.00 62 1011.9
20260906033235 30 240 0.0 4.8 0.00 0.00 0.00 61 1011.7
20260906033135 30 230 3.2 3.2 0.00 0.00 0.00 61 1012.0
20260906033025 30 232 3.2 3.2 0.00 0.00 0.00 61 1012.1
20260906032826 30 209 0.0 3.2 0.00 0.00 0.00 61 1011.9
20260906032726 30 249 1.6 3.2 0.00 0.00 0.00 61 1011.9
20260906032628 30 319 3.2 3.2 0.00 0.00 0.00 61 1011.8
20260906032527 30 315 3.2 3.2 0.00 0.00 0.00 61 1012.1
20260906032436 30 279 3.2 3.2 0.00 0.00 0.00 61 1011.8
20260906032336 30 216 0.0 3.2 0.00 0.00 0.00 61 1011.6
20260906032236 30 304 3.2 4.8 0.00 0.00 0.00 61 1011.8
20260906032127 30 284 0.0 4.8 0.00 0.00 0.00 61 1011.8
20260906032026 30 62 1.6 3.2 0.00 0.00 0.00 61 1011.7
20260906031926 30 238 3.2 3.2 0.00 0.00 0.00 60 1011.8
20260906031826 30 202 0.0 3.2 0.00 0.00 0.00 60 1011.9
20260906031726 30 244 1.6 3.2 0.00 0.00 0.00 60 1012.0
20260906031426 30 9 1.6 3.2 0.00 0.00 0.00 60 1012.0
20260906031227 30 323 0.0 4.8 0.00 0.00 0.00 60 1012.0
20260906031026 30 266 1.6 3.2 0.00 0.00 0.00 60 1012.3
20260906030926 30 218 0.0 3.2 0.00 0.00 0.00 60 1012.1
20260906030826 30 156 3.2 3.2 0.00 0.00 0.00 60 1012.1
20260906030626 30 317 0.0 3.2 0.00 0.00 0.00 60 1011.9
20260906030526 30 284 3.2 4.8 0.00 0.00 0.00 60 1012.0
20260906030426 30 199 3.2 4.8 0.00 0.00 0.00 60 1012.0
20260906030226 30 17 0.0 4.8 0.00 0.00 0.00 59 1012.0
20260906030126 30 334 1.6 4.8 0.00 0.00 0.00 59 1011.9
20260906030026 30 335 0.0 4.8 0.00 0.00 0.00 59 1011.7
20260906025936 30 57 3.2 4.8 0.00 0.00 0.00 59 1012.1
20260906025836 30 93 1.6 8.0 0.00 0.00 0.00 59 1012.0
20260906025727 30 217 4.8 8.0 0.00 0.00 0.00 59 1012.0
20260906025526 30 66 3.2 6.4 0.00 0.00 0.00 59 1012.0
20260906025436 30 107 0.0 6.4 0.00 0.00 0.00 59 1011.9
20260906025336 30 207 1.6 3.2 0.00 0.00 0.00 59 1011.9
20260906025226 30 244 0.0 3.2 0.00 0.00 0.00 59 1011.8
20260906025136 30 303 3.2 3.2 0.00 0.00 0.00 59 1011.9
20260906025026 30 285 1.6 3.2 0.00 0.00 0.00 59 1011.8
20260906024826 30 342 0.0 4.8 0.00 0.00 0.00 58 1011.8
20260906024626 30 8 1.6 4.8 0.00 0.00 0.00 58 1011.9
20260906024526 30 234 3.2 4.8 0.00 0.00 0.00 58 1011.9
20260906024436 30 323 3.2 3.2 0.00 0.00 0.00 58 1011.6
20260906024326 30 220 1.6 3.2 0.00 0.00 0.00 58 1011.8
20260906024227 30 229 3.2 4.8 0.00 0.00 0.00 58 1011.8
20260906024126 30 245 1.6 4.8 0.00 0.00 0.00 58 1011.9
20260906023826 30 229 1.6 1.6 0.00 0.00 0.00 58 1011.7
20260906023027 30 326 0.0 3.2 0.00 0.00 0.00 58 1011.6
20260906022937 30 234 1.6 3.2 0.00 0.00 0.00 58 1011.6
20260906022636 30 350 1.6 1.6 0.00 0.00 0.00 58 1011.5
20260906022326 31 230 0.0 3.2 0.00 0.00 0.00 58 1011.5
20260906022226 31 323 3.2 3.2 0.00 0.00 0.00 58 1011.5
20260906022126 31 235 3.2 1.6 0.00 0.00 0.00 58 1011.5
20260906022026 31 315 1.6 1.6 0.00 0.00 0.00 58 1011.4
20260906021927 31 20 0.0 1.6 0.00 0.00 0.00 58 1011.3
20260906021826 31 277 1.6 3.2 0.00 0.00 0.00 58 1011.3
20260906021427 31 34 0.0 1.6 0.00 0.00 0.00 57 1011.3
20260906021327 31 292 1.6 3.2 0.00 0.00 0.00 57 1011.4
20260906021227 31 224 0.0 3.2 0.00 0.00 0.00 57 1011.2
20260906021126 31 279 1.6 1.6 0.00 0.00 0.00 57 1011.0
20260906020827 31 4 0.0 3.2 0.00 0.00 0.00 57 1011.1
20260906020727 31 319 1.6 3.2 0.00 0.00 0.00 57 1011.2
20260906020327 31 93 0.0 4.8 0.00 0.00 0.00 57 1011.0
20260906020227 31 7 1.6 4.8 0.00 0.00 0.00 57 1011.0
20260906020026 31 25 3.2 4.8 0.00 0.00 0.00 57 1011.1
20260906015826 31 19 0.0 4.8 0.00 0.00 0.00 56 1011.0
20260906015737 31 100 4.8 3.2 0.00 0.00 0.00 56 1011.3
20260906015627 31 93 1.6 3.2 0.00 0.00 0.00 56 1011.1
20260906015526 31 268 1.6 1.6 0.00 0.00 0.00 56 1011.0
20260906015326 31 320 0.0 4.8 0.00 0.00 0.00 56 1011.0
20260906015227 31 132 3.2 4.8 0.00 0.00 0.00 56 1011.0
20260906015137 31 113 3.2 4.8 0.00 0.00 0.00 56 1011.2
20260906015026 31 55 1.6 8.0 0.00 0.00 0.00 56 1011.0
20260906014926 31 92 0.0 4.8 0.00 0.00 0.00 56 1011.1
20260906014826 31 48 3.2 6.4 0.00 0.00 0.00 56 1011.1
20260906014727 31 320 1.6 6.4 0.00 0.00 0.00 56 1010.9
20260906014627 31 104 3.2 6.4 0.00 0.00 0.00 56 1011.1
20260906014526 31 100 3.2 3.2 0.00 0.00 0.00 56 1011.1
20260906014426 31 92 3.2 3.2 0.00 0.00 0.00 56 1011.1
20260906014227 31 222 0.0 8.0 0.00 0.00 0.00 56 1011.1
20260906014026 31 65 3.2 4.8 0.00 0.00 0.00 55 1011.1
20260906013827 31 57 3.2 6.4 0.00 0.00 0.00 55 1011.1
20260906013727 31 353 0.0 9.7 0.00 0.00 0.00 55 1010.8
20260906013626 31 138 4.8 9.7 0.00 0.00 0.00 55 1011.0
20260906013526 31 123 4.8 12.9 0.00 0.00 0.00 54 1011.2
20260906013426 31 67 4.8 12.9 0.00 0.00 0.00 54 1010.9
20260906013336 31 130 8.0 9.7 0.00 0.00 0.00 54 1010.9
20260906013226 31 95 3.2 9.7 0.00 0.00 0.00 54 1010.7
20260906013127 31 155 6.4 4.8 0.00 0.00 0.00 54 1010.6
20260906013026 31 145 3.2 4.8 0.00 0.00 0.00 54 1010.7
20260906012926 32 10 0.0 6.4 0.00 0.00 0.00 53 1010.7
20260906012826 32 106 3.2 11.3 0.00 0.00 0.00 53 1010.7
20260906012736 32 82 6.4 8.0 0.00 0.00 0.00 53 1010.6
20260906012625 32 106 4.8 8.0 0.00 0.00 0.00 52 1010.6
20260906012525 32 15 0.0 8.0 0.00 0.00 0.00 52 1010.6
20260906012426 32 82 3.2 8.0 0.00 0.00 0.00 52 1010.6
20260906012326 32 101 8.0 6.4 0.00 0.00 0.00 51 1010.5
20260906012225 32 60 3.2 8.0 0.00 0.00 0.00 51 1010.5
20260906012136 32 136 3.2 4.8 0.00 0.00 0.00 51 1010.5
20260906012026 32 75 3.2 6.4 0.00 0.00 0.00 51 1010.3
20260906011926 32 244 1.6 6.4 0.00 0.00 0.00 50 1010.4
20260906011826 32 207 0.0 3.2 0.00 0.00 0.00 50 1010.5
20260906011736 32 40 3.2 3.2 0.00 0.00 0.00 50 1010.2
20260906011536 33 269 0.0 6.4 0.00 0.00 0.00 50 1010.4
20260906011327 33 96 1.6 4.8 0.00 0.00 0.00 49 1010.2
20260906011225 33 107 4.8 4.8 0.00 0.00 0.00 49 1010.1
20260906011125 33 73 1.6 6.4 0.00 0.00 0.00 49 1010.2
20260906011025 33 251 3.2 6.4 0.00 0.00 0.00 49 1010.0
20260906010926 33 186 0.0 6.4 0.00 0.00 0.00 49 1010.3
20260906010836 33 119 3.2 8.0 0.00 0.00 0.00 49 1010.1
20260906010725 33 1 0.0 8.0 0.00 0.00 0.00 49 1010.2
20260906010635 33 113 6.4 6.4 0.00 0.00 0.00 48 1010.3
20260906010526 33 93 4.8 6.4 0.00 0.00 0.00 48 1010.2
20260906010426 33 52 4.8 4.8 0.00 0.00 0.00 48 1010.2
20260906010227 33 160 3.2 11.3 0.00 0.00 0.00 48 1009.9
20260906010126 33 76 6.4 8.0 0.00 0.00 0.00 48 1010.0
20260906010037 33 150 3.2 4.8 0.00 0.00 0.00 48 1009.8
20260906005927 33 65 4.8 3.2 0.00 0.00 0.00 48 1009.9
20260906005726 33 247 0.0 6.4 0.00 0.00 0.00 48 1009.9
20260906005626 33 242 3.2 6.4 0.00 0.00 0.00 48 1009.9
20260906005426 33 171 0.0 4.8 0.00 0.00 0.00 48 1009.7
20260906005327 34 118 3.2 4.8 0.00 0.00 0.00 47 1009.8
20260906005226 34 244 1.6 8.0 0.00 0.00 0.00 47 1009.7
20260906005126 34 50 3.2 8.0 0.00 0.00 0.00 47 1009.8
20260906005027 34 174 3.2 6.4 0.00 0.00 0.00 47 1009.9
20260906004927 34 40 3.2 6.4 0.00 0.00 0.00 46 1009.9
20260906004727 34 202 3.2 8.0 0.00 0.00 0.00 46 1009.8
20260906004626 34 63 0.0 9.7 0.00 0.00 0.00 45 1009.8
20260906004527 34 207 3.2 9.7 0.00 0.00 0.00 45 1009.8
20260906004426 35 104 4.8 9.7 0.00 0.00 0.00 44 1009.7
20260906004327 35 127 6.4 9.7 0.00 0.00 0.00 44 1009.6
20260906004226 35 246 1.6 4.8 0.00 0.00 0.00 43 1009.7
20260906004126 35 131 3.2 3.2 0.00 0.00 0.00 43 1009.7
20260906003736 35 318 0.0 3.2 0.00 0.00 0.00 42 1009.4
20260906003527 35 257 1.6 3.2 0.00 0.00 0.00 42 1009.5
20260906002936 35 110 0.0 4.8 0.00 0.00 0.00 42 1009.5
20260906002836 35 320 1.6 3.2 0.00 0.00 0.00 42 1009.6
20260906002626 35 252 0.0 3.2 0.00 0.00 0.00 42 1009.5
20260906002527 35 221 3.2 3.2 0.00 0.00 0.00 42 1009.5
20260906002427 35 278 3.2 3.2 0.00 0.00 0.00 42 1009.6
20260906002327 35 123 3.2 3.2 0.00 0.00 0.00 42 1009.8
20260906002226 35 283 1.6 3.2 0.00 0.00 0.00 42 1009.6
20260906001526 35 125 0.0 4.8 0.00 0.00 0.00 41 1009.5
20260906001426 35 155 1.6 3.2 0.00 0.00 0.00 41 1009.7
20260906001326 35 208 3.2 3.2 0.00 0.00 0.00 41 1009.9
20260906001226 35 144 1.6 3.2 0.00 0.00 0.00 41 1009.7
20260906000926 35 89 0.0 4.8 0.00 0.00 0.00 40 1009.8
20260906000826 35 41 1.6 4.8 0.00 0.00 0.00 40 1009.6
20260906000626 35 22 0.0 3.2 0.00 0.00 0.00 40 1009.5
20260906000526 35 106 3.2 6.4 0.00 0.00 0.00 40 1009.5
20260906000436 35 178 1.6 6.4 0.00 0.00 0.00 40 1009.7
20260906000326 35 39 3.2 4.8 0.00 0.00 0.00 40 1009.7
20260906000226 35 114 4.8 3.2 0.00 0.00 0.00 40 1009.6
20260906000035 35 184 0.0 3.2 0.00 0.00 0.00 40 1009.2
20260905235925 35 63 1.6 3.2 0.00 0.00 0.00 40 1009.5
20260905235826 35 226 3.2 3.2 0.00 0.00 0.00 40 1009.6
20260905235735 35 187 0.0 3.2 0.00 0.00 0.00 40 1009.5
20260905235626 35 91 1.6 3.2 0.00 0.00 0.00 40 1009.6
20260905235426 35 352 0.0 3.2 0.00 0.00 0.00 40 1009.2
20260905235325 35 71 3.2 3.2 0.00 0.00 0.00 39 1009.3